sat.trackr.live / text

‹ back to catalog

STARLINK-31772

NORAD 59430 · 2024-065K

PAYLOAD ACTIVE UNKNOWN

§ Identity

Operator
Country
US
Launch date
2024-04-07
Launch site
AFWTR
Launch vehicle
Mass (kg)
RCS (m²)

Purposes: comms

External: N2YO · Heavens-Above · Gunter

§ Orbital elements

Epoch: 2026-09-21T20:04:21.576576Z

Period
93.85 min
Inclination
53.1596°
Eccentricity
0.0001260
Mean motion
15.34392895 rev/d
Perigee alt
461.9 km
Apogee alt
463.6 km
Semi-major
6,840.9 km
B*
-1.8516e-5
RAAN
87.5192°
Arg perigee
97.0721°
Mean anomaly
263.0425°
Rev number
13,900

§ Raw data

STARLINK-317721 59430U 24065K   26264.83636084 -.00001002  00000+0 -18516-4 0  99952 59430  53.1596  87.5192 0001260  97.0721 263.0425 15.34392895139003

JSON: /api/v1/satellites/59430 · /tle

For live sub-satellite position, see the globe view (requires WebGL).

§ Visibility from observer

Set your observer location to see the next 7 days of passes ≥ 10°. The values pass through the URL so the page stays shareable.

No JS? Fill the form by hand. The geolocation button needs JavaScript.